Powrót do katalogu

STARLINK-6174

AktywnyŁącznośćVLEO
NORAD 57366·PAYLOAD·🇺🇸 United States

Wystrzelony Jul 16, 2023 z Cape Canaveral Space Force Station

Loading…

Następne Przeloty (najbliższe 24 godziny)

TLE

ŚwieżeSource: CelesTrak SupGP

Epoka: Sep 14, 2026, 21:35 UTC

1 57366C 23099AQ  26257.89979167  .00026195  00000+0  94892-3 0  2572
2 57366  42.9993 253.0842 0001220 274.0358 204.0874 15.27560160    12

Śledź STARLINK-6174 w czasie rzeczywistym z AllMySat

Download on the App Store